Location: Newark
(13.6797°N, 8.5297°E)
Time: 18:40:29
(UTC+00:00)

Altair - Pass Details

Date: 02 February 2020
Orbit: 1502 x 1682 km, 47.2° (Epoch: 25 February)

Event Time Altitude Azimuth Distance (km) Brightness Sun altitude
Rises 04:17:48 0° 233° (SW) 4,721 - -23.2°
Reaches altitude 10° 04:20:54 10° 238° (WSW) 3,761 - -22.4°
Exits shadow 04:23:34 21° 244° (WSW) 2,987 8.6 -21.8°
Maximum altitude 04:30:15 57° 314° (NW) 1,856 7.6 -20.2°
Drops below altitude 10° 04:39:59 10° 31° (NNE) 3,898 9.8 -17.9°
Sets 04:43:17 0° 36° (NE) 4,902 10.4 -17.1°
